Skip Page Navigation
NASA JPL Caltech
NASA Logo - Jet Propulsion Laboratory + View the NASA Portal
+ Center for Near-Earth Object Studies
JPL Home Earth Solar System Stars & Galaxies Technology
JPL Solar System Dynamics
BODIES ORBITS EPHEMERIDES TOOLS PHYSICAL DATA DISCOVERY FAQ SITE MAP
JPL Small-Body Database Browser
Search: [ help ]  
136534 (2006 KK16)
Classification: Main-belt Asteroid          SPK-ID: 2136534
Ephemeris | Orbit Diagram | Orbital Elements | Mission Design | Physical Parameters | Discovery Circumstances | Close-Approach Data ]

[ show orbit diagram ]
Orbital Elements at Epoch 2459000.5 (2020-May-31.0) TDB
Reference: JPL 19 (heliocentric ecliptic J2000)
 Element Value Uncertainty (1-sigma)   Units 
e .1038378582393501 5.5316e-08  
a 3.107394929937256 3.9363e-08 au
q 2.784729695708756 1.6785e-07 au
i 22.66323843528487 5.4013e-06 deg
node 104.7790464853892 1.4828e-05 deg
peri 105.024585713523 2.8439e-05 deg
M 218.5834994189255 2.6309e-05 deg
tp 2459786.442350793017
(2022-Jul-25.94235079)
0.00015262 TDB
period 2000.751292267171
5.48
3.8017e-05
1.041e-07
d
yr
n .17993240908622 3.4189e-09 deg/d
Q 3.430060164165756 4.345e-08 au
  Orbit Determination Parameters
   # obs. used (total)      472  
   data-arc span      7524 days (20.60 yr)  
   first obs. used      2000-03-10  
   last obs. used      2020-10-15  
   planetary ephem.      DE431  
   SB-pert. ephem.      SB431-N16  
   condition code      0  
   norm. resid. RMS      .57805  
   source      ORB  
   producer      Otto Matic  
   solution date      2020-Nov-12 15:51:53  

Additional Information
 Earth MOID = 1.86636 au 
 Jupiter MOID = 1.91814 au 
 T_jup = 3.093 
[ show covariance matrix ]

Ephemeris | Orbit Diagram | Orbital Elements | Mission Design | Physical Parameters | Discovery Circumstances | Close-Approach Data ]

Physical Parameter Table
Parameter Symbol Value Units Sigma Reference Notes
absolute magnitude H 14.6   n/a MPO417721  
diameter diameter 7.024 km 0.220 urn:nasa:pds:neowise_diameters_albedos::2.0[mainbelt] (http://adsabs.harvard.edu/abs/2011ApJ...741...68M)  
geometric albedo albedo 0.062   0.010 urn:nasa:pds:neowise_diameters_albedos::2.0[mainbelt] (http://adsabs.harvard.edu/abs/2011ApJ...741...68M)  

136534 (2006 KK16)          Discovered 2006-May-20 by LONEOS at Anderson Mesa
Reference: 20060907/Numbers.arcLast Updated: 2006-09-10

[ show close-approach data ]
Ephemeris | Orbit Diagram | Orbital Elements | Mission Design | Physical Parameters | Discovery Circumstances | Close-Approach Data ]
ABOUT SSD CREDITS/AWARDS PRIVACY/COPYRIGHT GLOSSARY LINKS
FirstGov 2021-Jan-18 15:01 UT
(server date/time)  
NASA Home Page
Site Manager:   Ryan S. Park
Webmaster  Alan B. Chamberlin